Location: Gad�tanya
(48.0500°N, 20.8500°E)
Time: 11:57:22
(UTC+00:00)

Cosmos 2237 Rocket - Pass Details

Date: 05 July 2020
Orbit: 835 x 850 km, 71.0° (Epoch: 14 August)

Event Time Altitude Azimuth Distance (km) Brightness Sun altitude
Exits shadow 20:32:40 19° 154° (SSE) 1,891 3.4 -13.6°
Maximum altitude 20:35:46 33° 105° (ESE) 1,408 3.0 -13.9°
Drops below altitude 10° 20:40:46 10° 44° (NE) 2,486 4.9 -14.3°
Sets 20:43:27 0° 35° (NE) 3,426 5.7 -14.5°
